GW4987 Weather Reports


time (UTC)temp
F
wind
direction
speed
knots
gust
knots
rain 1hr
in
rain 24hr
in
rain mn
in
humidity
%
barometer
mb
20260506165046 57 286 0.0 6.1 0.00 0.00 0.00 35 1018.9
20260506164547 58 16 3.5 5.2 0.00 0.00 0.00 34 1019.3
20260506164009 57 300 4.3 6.1 0.00 0.00 0.00 35 1019.0
20260506163546 56 310 4.3 10.4 0.00 0.00 0.00 36 1018.9
20260506163047 55 288 8.7 8.7 0.00 0.00 0.00 36 1018.8
20260506162509 57 333 4.3 5.2 0.00 0.00 0.00 34 1018.8
20260506162009 56 340 5.2 6.1 0.00 0.00 0.00 34 1018.9
20260506161546 56 305 5.2 11.3 0.00 0.00 0.00 35 1018.7
20260506161009 55 48 3.5 5.2 0.00 0.00 0.00 36 1018.7
20260506160547 55 133 5.2 6.1 0.00 0.00 0.00 35 1018.8
20260506160046 55 341 4.3 7.0 0.00 0.00 0.00 36 1018.6
20260506155547 54 276 2.6 8.7 0.00 0.00 0.00 37 1018.6
20260506155047 54 324 1.7 3.5 0.00 0.00 0.00 37 1018.6
20260506154546 54 266 7.8 8.7 0.00 0.00 0.00 37 1018.8
20260506154046 54 1 6.1 7.0 0.00 0.00 0.00 37 1018.6
20260506153547 53 212 2.6 7.0 0.00 0.00 0.00 37 1018.5
20260506151546 55 177 3.5 5.2 0.00 0.00 0.00 36 1018.5
20260506151047 54 309 4.3 5.2 0.00 0.00 0.00 38 1018.5
20260506150547 53 32 4.3 6.1 0.00 0.00 0.00 36 1018.4
20260506150011 52 261 5.2 6.1 0.00 0.00 0.00 38 1018.4
20260506145547 53 266 2.6 3.5 0.00 0.00 0.00 38 1018.6
20260506145046 53 353 3.5 4.3 0.00 0.00 0.00 38 1018.5
20260506144510 51 133 1.7 2.6 0.00 0.00 0.00 39 1018.3
20260506144047 51 343 5.2 7.0 0.00 0.00 0.00 41 1018.4
20260506143547 51 336 2.6 3.5 0.00 0.00 0.00 40 1018.4
20260506143010 52 187 1.7 2.6 0.00 0.00 0.00 42 1018.3
20260506142546 53 269 2.6 2.6 0.00 0.00 0.00 44 1018.4
20260506142046 52 62 2.6 4.3 0.00 0.00 0.00 45 1018.2
20260506141546 51 103 3.5 4.3 0.00 0.00 0.00 45 1018.4
20260506141009 51 71 2.6 4.3 0.00 0.00 0.00 47 1018.2
20260506140546 50 89 2.6 4.3 0.00 0.00 0.00 47 1018.3
20260506140047 50 113 2.6 4.3 0.00 0.00 0.00 48 1018.2
20260506135547 50 94 3.5 4.3 0.00 0.00 0.00 49 1018.3
20260506135010 50 103 2.6 2.6 0.00 0.00 0.00 49 1018.2
20260506134547 48 103 1.7 2.6 0.00 0.00 0.00 52 1018.2
20260506134046 45 148 1.7 2.6 0.00 0.00 0.00 56 1018.0
20260506133546 44 131 0.0 2.6 0.00 0.00 0.00 59 1018.0
20260506133047 42 60 0.0 2.6 0.00 0.00 0.00 61 1018.0
20260506131047 38 271 2.6 2.6 0.00 0.00 0.00 69 1017.9
20260506130510 37 255 1.7 2.6 0.00 0.00 0.00 72 1018.0
20260506130010 37 313 1.7 1.7 0.00 0.00 0.00 73 1017.8
20260506125546 36 254 2.6 2.6 0.00 0.00 0.00 74 1018.0
20260506125010 35 311 1.7 2.6 0.00 0.00 0.00 75 1018.0
20260506123011 37 0 0.0 1.7 0.00 0.00 0.00 73 1017.5
20260506122547 36 193 0.0 1.7 0.00 0.00 0.00 73 1017.4
20260506122047 38 193 0.0 2.6 0.00 0.00 0.00 70 1017.2
20260506121510 38 201 1.7 2.6 0.00 0.00 0.00 71 1017.4
20260506121010 37 268 2.6 2.6 0.00 0.00 0.00 72 1017.4
20260506120547 37 252 1.7 3.5 0.00 0.00 0.00 71 1017.6
20260506120047 38 246 0.0 0.0 0.00 0.00 0.00 68 1017.5
20260506115547 38 246 0.0 0.0 0.00 0.00 0.00 68 1017.3
20260506115047 38 246 0.0 0.0 0.00 0.00 0.00 68 1017.6
20260506112010 40 252 3.5 3.5 0.00 0.00 0.00 65 1017.2
20260506111547 39 255 4.3 4.3 0.00 0.00 0.00 66 1017.3
20260506111011 38 253 2.6 2.6 0.00 0.00 0.00 67 1017.2
20260506110547 38 185 1.7 1.7 0.00 0.00 0.00 66 1017.5
20260506110047 39 340 0.0 1.7 0.00 0.00 0.00 66 1017.3
20260506105547 38 180 0.0 0.0 0.00 0.00 0.00 68 1017.2
20260506105010 38 180 0.0 0.0 0.00 0.00 0.00 68 1017.3
20260506104546 37 211 2.6 2.6 0.00 0.00 0.00 69 1017.1
20260506104047 37 125 2.6 4.3 0.00 0.00 0.00 67 1017.1
20260506102047 40 237 2.6 3.5 0.00 0.00 0.00 63 1017.0
20260506101547 40 237 2.6 3.5 0.00 0.00 0.00 63 1017.1
20260506101047 40 251 3.5 4.3 0.00 0.00 0.00 63 1017.1
20260506100547 40 261 4.3 4.3 0.00 0.00 0.00 63 1017.1
20260506100009 40 227 2.6 3.5 0.00 0.00 0.00 62 1017.0
20260506095547 41 235 3.5 4.3 0.00 0.00 0.00 61 1017.2
20260506095046 41 249 3.5 3.5 0.00 0.00 0.00 60 1017.0
20260506094509 42 225 3.5 4.3 0.00 0.00 0.00 59 1017.2
20260506092546 41 217 2.6 3.5 0.00 0.00 0.00 61 1017.1
20260506092046 41 217 2.6 3.5 0.00 0.00 0.00 61 1016.8
20260506091547 41 217 2.6 3.5 0.00 0.00 0.00 61 1016.7
20260506091009 41 217 2.6 3.5 0.00 0.00 0.00 61 1016.7
20260506090546 41 217 2.6 3.5 0.00 0.00 0.00 61 1016.7
20260506090047 42 264 4.3 4.3 0.00 0.00 0.00 58 1016.7
20260506085546 42 264 4.3 4.3 0.00 0.00 0.00 58 1016.6
20260506085009 42 264 4.3 4.3 0.00 0.00 0.00 58 1017.0
20260506084547 42 264 4.3 4.3 0.00 0.00 0.00 58 1016.8
20260506084047 42 264 4.3 4.3 0.00 0.00 0.00 58 1016.6
20260506083547 42 265 3.5 6.1 0.00 0.00 0.00 59 1016.7
20260506083047 42 268 5.2 6.1 0.00 0.00 0.00 59 1016.8
20260506082546 41 255 4.3 4.3 0.00 0.00 0.00 59 1016.5
20260506082009 41 255 4.3 4.3 0.00 0.00 0.00 59 1016.4
20260506081547 41 255 4.3 4.3 0.00 0.00 0.00 59 1016.7
20260506080510 42 241 2.6 3.5 0.00 0.00 0.00 56 1016.7
20260506073010 42 241 2.6 3.5 0.00 0.00 0.00 56 1016.8
20260506072546 42 241 2.6 3.5 0.00 0.00 0.00 56 1016.8
20260506072047 42 241 2.6 3.5 0.00 0.00 0.00 56 1016.7
20260506071510 42 241 2.6 3.5 0.00 0.00 0.00 56 1016.6
20260506071010 42 241 2.6 3.5 0.00 0.00 0.00 56 1016.6
20260506070514 43 257 2.6 2.6 0.00 0.00 0.00 56 1016.7
20260506061010 44 263 3.5 4.3 0.00 0.00 0.00 51 1016.3
20260506060547 44 263 3.5 4.3 0.00 0.00 0.00 51 1016.5
20260506051047 44 247 3.5 4.3 0.00 0.00 0.00 51 1016.3
20260506050547 45 249 3.5 3.5 0.00 0.00 0.00 51 1016.2
20260506045046 45 247 2.6 2.6 0.00 0.00 0.00 51 1016.1
20260506044510 45 247 2.6 2.6 0.00 0.00 0.00 51 1016.3
20260506044009 45 247 2.6 2.6 0.00 0.00 0.00 51 1016.0
20260506043546 45 256 2.6 2.6 0.00 0.00 0.00 51 1016.1
20260506043009 45 237 2.6 2.6 0.00 0.00 0.00 51 1016.1
20260506042546 45 230 2.6 4.3 0.00 0.00 0.00 51 1016.0
20260506042047 45 212 2.6 3.5 0.00 0.00 0.00 52 1016.0
20260506041547 45 231 2.6 2.6 0.00 0.00 0.00 52 1015.8
20260506035510 46 260 2.6 3.5 0.00 0.00 0.00 51 1016.0
20260506035010 46 252 2.6 3.5 0.00 0.00 0.00 50 1015.9
20260506034547 46 228 3.5 3.5 0.00 0.00 0.00 50 1015.7
20260506034047 46 210 2.6 2.6 0.00 0.00 0.00 50 1015.8
20260506033547 46 253 2.6 2.6 0.00 0.00 0.00 50 1015.7
20260506033047 46 220 1.7 1.7 0.00 0.00 0.00 50 1015.6
20260506031046 46 224 2.6 5.2 0.00 0.00 0.00 50 1015.3
20260506030510 47 199 2.6 3.5 0.00 0.00 0.00 49 1015.3
20260506030010 47 191 2.6 3.5 0.00 0.00 0.00 49 1015.2
20260506025546 47 174 2.6 2.6 0.00 0.00 0.00 49 1015.3
20260506025010 47 176 2.6 4.3 0.00 0.00 0.00 48 1015.0
20260506024547 47 216 4.3 6.1 0.00 0.00 0.00 48 1015.0
20260506024046 48 195 1.7 4.3 0.00 0.00 0.00 47 1014.7
20260506023547 49 224 7.8 8.7 0.00 0.00 0.00 44 1014.7
20260506023010 49 224 7.8 8.7 0.00 0.00 0.00 44 1014.6
20260506022547 49 224 7.8 8.7 0.00 0.00 0.00 44 1014.6
20260506022047 49 224 7.8 8.7 0.00 0.00 0.00 44 1014.6
20260506021509 49 224 7.8 8.7 0.00 0.00 0.00 44 1014.3
20260506021009 49 224 7.8 8.7 0.00 0.00 0.00 44 1014.3
20260506020546 52 226 6.1 9.6 0.00 0.00 0.00 41 1014.4
20260506020009 52 226 6.1 9.6 0.00 0.00 0.00 41 1014.3
20260506015546 52 226 6.1 9.6 0.00 0.00 0.00 41 1014.2
20260506015047 52 226 6.1 9.6 0.00 0.00 0.00 41 1014.1
20260506014546 52 226 6.1 9.6 0.00 0.00 0.00 41 1014.0
20260506014009 52 226 6.1 9.6 0.00 0.00 0.00 41 1014.1
20260506013546 52 226 6.1 9.6 0.00 0.00 0.00 41 1014.0
20260506010546 53 217 3.5 4.3 0.00 0.00 0.00 40 1013.9
20260506010046 53 217 3.5 4.3 0.00 0.00 0.00 40 1013.8
20260506005547 53 217 3.5 4.3 0.00 0.00 0.00 40 1013.9
20260506005046 53 217 3.5 4.3 0.00 0.00 0.00 40 1013.9
20260506004546 53 217 3.5 4.3 0.00 0.00 0.00 40 1013.9
20260506004047 53 217 3.5 4.3 0.00 0.00 0.00 40 1013.8
20260506003547 53 217 3.5 4.3 0.00 0.00 0.00 40 1013.9
20260506003010 53 217 3.5 4.3 0.00 0.00 0.00 40 1013.7
20260506002547 53 217 3.5 4.3 0.00 0.00 0.00 40 1013.8
20260506002046 53 217 3.5 4.3 0.00 0.00 0.00 40 1013.8
20260506001546 53 217 3.5 4.3 0.00 0.00 0.00 40 1013.5
20260506001047 53 217 3.5 4.3 0.00 0.00 0.00 40 1013.5
20260506000547 53 235 9.6 15.6 0.00 0.00 0.00 40 1013.6
20260506000010 52 202 12.2 17.4 0.00 0.00 0.00 40 1013.4
20260505235547 53 218 7.8 13.9 0.00 0.00 0.00 39 1013.5
20260505235047 52 206 9.6 16.5 0.00 0.00 0.00 40 1013.5
20260505234510 53 178 11.3 17.4 0.00 0.00 0.00 39 1013.4
20260505234010 53 205 14.8 18.2 0.00 0.00 0.00 39 1013.5
20260505233547 54 150 7.0 8.7 0.00 0.00 0.00 39 1013.1
20260505233010 53 217 10.4 20.0 0.00 0.00 0.00 40 1013.2
20260505232546 53 214 3.5 18.2 0.00 0.00 0.00 40 1013.0
20260505232046 54 213 4.3 15.6 0.00 0.00 0.00 39 1013.1
20260505231546 54 223 6.1 11.3 0.00 0.00 0.00 38 1013.1
20260505231010 54 208 9.6 24.3 0.00 0.00 0.00 37 1013.0
20260505230547 55 211 13.9 14.8 0.00 0.00 0.00 34 1013.0
20260505230047 55 211 13.9 14.8 0.00 0.00 0.00 34 1013.0
20260505224047 57 188 11.3 19.1 0.00 0.00 0.00 33 1013.1
20260505223547 57 188 11.3 19.1 0.00 0.00 0.00 33 1013.3
20260505223047 54 225 8.7 9.6 0.00 0.00 0.00 35 1013.1
20260505222547 55 195 12.2 22.6 0.00 0.00 0.00 34 1013.5
20260505222011 55 264 15.6 16.5 0.00 0.00 0.00 34 1013.4
20260505221547 56 196 13.0 22.6 0.00 0.00 0.00 32 1013.3
20260505221047 57 217 5.2 10.4 0.00 0.00 0.00 33 1013.4
20260505220511 56 200 13.9 17.4 0.00 0.00 0.00 33 1013.6
20260505214546 56 214 11.3 12.2 0.00 0.00 0.00 36 1013.6
20260505214046 56 214 11.3 12.2 0.00 0.00 0.00 36 1013.6
20260505213547 56 214 11.3 12.2 0.00 0.00 0.00 36 1013.3
20260505213011 56 214 11.3 12.2 0.00 0.00 0.00 36 1013.8
20260505212546 55 196 11.3 16.5 0.00 0.00 0.00 38 1013.8
20260505212046 55 196 11.3 16.5 0.00 0.00 0.00 38 1013.8
20260505211511 57 189 5.2 11.3 0.00 0.00 0.00 39 1013.9
20260505211010 56 223 7.8 8.7 0.00 0.00 0.00 41 1013.8
20260505210546 56 223 10.4 14.8 0.00 0.00 0.00 41 1013.8
20260505210046 53 170 7.0 9.6 0.00 0.00 0.00 48 1013.8
20260505205546 53 170 7.0 9.6 0.00 0.00 0.00 48 1013.9
20260505205046 53 171 7.0 15.6 0.00 0.00 0.00 49 1014.0
20260505204546 54 174 12.2 21.7 0.00 0.00 0.00 47 1013.8
20260505204010 56 221 12.2 15.6 0.00 0.00 0.00 45 1013.9
20260505203547 54 200 13.9 16.5 0.00 0.00 0.00 47 1013.8
20260505202010 52 128 4.3 12.2 0.00 0.00 0.00 46 1014.2
20260505201547 52 128 4.3 12.2 0.00 0.00 0.00 46 1014.2
20260505201011 52 128 4.3 12.2 0.00 0.00 0.00 46 1014.2
20260505195011 52 128 4.3 12.2 0.00 0.00 0.00 46 1014.4
20260505194546 52 128 4.3 12.2 0.00 0.00 0.00 46 1014.4
20260505194046 52 128 4.3 12.2 0.00 0.00 0.00 46 1014.3
20260505192046 52 173 11.3 16.5 0.00 0.00 0.00 46 1014.6
20260505191546 52 171 13.0 13.0 0.00 0.00 0.00 49 1014.4
20260505191047 53 221 7.8 13.9 0.00 0.00 0.00 50 1014.5
20260505185047 51 262 8.7 9.6 0.00 0.00 0.00 57 1014.5
20260505184511 51 262 8.7 9.6 0.00 0.00 0.00 57 1014.4
20260505184047 51 193 9.6 11.3 0.00 0.00 0.00 54 1014.4
20260505183546 51 193 9.6 11.3 0.00 0.00 0.00 54 1014.5
20260505183010 53 222 8.7 10.4 0.00 0.00 0.00 50 1014.6
20260505182546 53 222 8.7 13.9 0.00 0.00 0.00 50 1014.3
20260505182046 54 132 3.5 9.6 0.00 0.00 0.00 48 1014.3
20260505181547 54 179 4.3 9.6 0.00 0.00 0.00 48 1014.3
20260505175546 52 141 10.4 12.2 0.00 0.00 0.00 51 1014.3
20260505175010 53 213 5.2 18.2 0.00 0.00 0.00 50 1014.2
20260505174547 54 157 7.8 15.6 0.00 0.00 0.00 47 1014.2
20260505174011 53 153 9.6 18.2 0.00 0.00 0.00 50 1014.3
20260505173547 53 170 10.4 13.0 0.00 0.00 0.00 51 1014.3
20260505173047 50 203 12.2 15.6 0.00 0.00 0.00 55 1014.2
20260505171546 51 135 8.7 13.9 0.00 0.00 0.00 51 1014.2
20260505171046 51 121 7.8 13.0 0.00 0.00 0.00 52 1014.2
20260505170547 54 196 13.9 16.5 0.00 0.00 0.00 49 1014.2
20260505170011 54 137 4.3 11.3 0.00 0.00 0.00 50 1014.1